カタログに戻る

ARIANE 44LP DEB

LostGTO
NORAD 33543·DEBRIS·🇫🇷 France

打ち上げ Dec 11, 1988 から Guiana Space Centre

Loading…

TLE

古いSource: Space-Track

元期: Oct 3, 2025, 01:06 UTC

1 33543U 88109S   25276.04627424  .00000438  00000-0  79037-2 0  9998
2 33543   6.6443 148.8006 7152253 229.6327 352.9779  2.27102269189951

AllMySatでARIANE 44LP DEBをリアルタイム追跡

Download on the App Store